This is the latest recevied weather packets stored in our database for station/object CQ0XBF-11. If no packets are shown the sender has not sent any weather packets the latest 10 day(s).
| Time | Temp. | Humidity | Pressure | Rain* | Wind** | Luminosity | Snow |
|---|---|---|---|---|---|---|---|
| 1778073923 | 25° C | 28% | - | 0 mm | - | - | - |
| 1778073782 | 25° C | 27% | - | 0 mm | - | - | - |
| 1778073661 | 25° C | 27% | - | 0 mm | - | - | - |
| 1778073539 | 25° C | 28% | - | 0 mm | - | - | - |
| 1778073418 | 25° C | 29% | - | 0 mm | - | - | - |
| 1778073296 | 25° C | 27% | - | 0 mm | - | - | - |
| 1778073175 | 26.11° C | 28% | - | 0 mm | - | - | - |
| 1778073090 | 25° C | 28% | - | 0 mm | - | - | - |
| 1778073053 | 25° C | 28% | - | 0 mm | - | - | - |
| 1778072932 | 25° C | 29% | - | 0 mm | - | - | - |
| 1778072810 | 25° C | 28% | - | 0 mm | - | - | - |
| 1778072689 | 25° C | 30% | - | 0 mm | - | - | - |
| 1778072567 | 25.56° C | 29% | - | 0 mm | - | - | - |
| 1778072482 | 25° C | 31% | - | 0 mm | - | - | - |
| 1778072446 | 25° C | 31% | - | 0 mm | - | - | - |
| 1778072325 | 25° C | 29% | - | 0 mm | - | - | - |
| 1778072203 | 24.44° C | 29% | - | 0 mm | - | - | - |
| 1778072081 | 24.44° C | 32% | - | 0 mm | - | - | - |
| 1778071960 | 24.44° C | 32% | - | 0 mm | - | - | - |
| 1778071879 | 23.89° C | 30% | - | 0 mm | - | - | - |
| 1778071838 | 23.89° C | 30% | - | 0 mm | - | - | - |
| 1778071753 | 24.44° C | 29% | - | 0 mm | - | - | - |
| 1778071716 | 24.44° C | 29% | - | 0 mm | - | - | - |
| 1778071595 | 23.89° C | 29% | - | 0 mm | - | - | - |
| 1778071474 | 24.44° C | 29% | - | 0 mm | - | - | - |
* Rain since midnight (hover to see other rain measurements)
** Current wind speed in m/s (hover to see current wind gust speed)